Cut Bank, MT

4:06 PM MDT on April 23, 2017 (GMT -0600)
Cut Bank Municipal

Weather History for KCTB - November, 2012

Change the Weather History Date:

Saturday, November 3, 2012

  Actual Average Record
Temperature  
Mean Temperature 38 °F 36 °F  
Max Temperature 54 °F 47 °F 79 °F (1962)
Min Temperature 22 °F 24 °F -21 °F (1935)
Degree Days  
Heating Degree Days 27 29  
Month to date heating degree days 69 87  
Since 1 July heating degree days 1240 1311  
Cooling Degree Days 0 0  
Month to date cooling degree days 0 0  
Year to date cooling degree days 210 162  
Moisture  
Dew Point 30 °F    
Average Humidity 73    
Maximum Humidity 100    
Minimum Humidity 46    
Precipitation  
Precipitation 0.00 in 0.01 in 0.29 in (2015)
Month to date precipitation 0.00 0.03  
Year to date precipitation 8.25 10.35  
Snow  
Snow 0.00 in - - ()
Snow Depth 0.00 in    
Sea Level Pressure  
Sea Level Pressure 30.06 in    
Wind  
Wind Speed 14 mph (South)    
Max Wind Speed 36 mph    
Max Gust Speed 43 mph    
Visibility 9 miles    
Events      
T = Trace of Precipitation, MM = Missing Value Source: NWS Daily Summary

Daily Weather History Graph

Daily Weather History Graph

Search for Another Location

Airport or City:

Trip Planner

Search our weather history database for the weather conditions in past years. The results will help you decide how hot, cold, wet, or windy it might be!

Date:

Astronomy

Nov. 03, 2012 Rise Set
Actual Time 8:19 AM MDT 6:05 PM MDT
Civil Twilight 7:46 AM MDT 6:38 PM MDT
Nautical Twilight 7:09 AM MDT 7:15 PM MDT
Astronomical Twilight 6:32 AM MDT 7:52 PM MDT
Moon 9:42 PM MDT (11/3) 12:35 PM MDT (11/3)
Length of Visible Light 10h 51m
Length of Day
9h 45m
Waning Gibbous, 80% of the Moon is Illuminated
Nov 3
Waning Gibbous
Nov 6
Last Quarter
Nov 13
New
Nov 20
First Quarter
Nov 28
Full

Hourly Weather History & Observations

Time (MDT) Temp. Windchill Dew Point Humidity Pressure Visibility Wind Dir Wind Speed Gust Speed Precip Events Conditions
12:56 AM 30.9 °F 27.5 °F 30.0 °F 96% 30.11 in 10.0 mi South 3.5 mph - N/A   Overcast
1:56 AM 30.0 °F - 28.9 °F 96% 30.11 in 10.0 mi Calm Calm - N/A   Partly Cloudy
2:56 AM 30.0 °F 25.2 °F 28.0 °F 92% 30.12 in 9.0 mi SE 4.6 mph - N/A   Clear
3:56 AM 28.0 °F 22.8 °F 27.0 °F 96% 30.12 in 9.0 mi SE 4.6 mph - N/A   Clear
4:56 AM 27.0 °F 21.6 °F 25.0 °F 92% 30.11 in 10.0 mi SE 4.6 mph - N/A   Clear
5:56 AM 28.0 °F 18.6 °F 27.0 °F 96% 30.13 in 10.0 mi SE 10.4 mph - N/A   Clear
6:56 AM 23.0 °F 17.0 °F 21.9 °F 96% 30.14 in 10.0 mi East 4.6 mph - N/A   Partly Cloudy
7:09 AM 23.0 °F 14.7 °F 21.2 °F 93% 30.03 in 2.5 mi SE 6.9 mph - N/A   Partly Cloudy
7:17 AM 23.0 °F 13.9 °F 21.2 °F 93% 30.03 in 7.0 mi SE 8.1 mph - N/A   Partly Cloudy
7:56 AM 21.9 °F 14.5 °F 21.0 °F 96% 30.14 in 1.8 mi SE 5.8 mph - N/A   Mostly Cloudy
8:02 AM 23.0 °F 14.7 °F 21.2 °F 93% 30.02 in 3.0 mi SSE 6.9 mph - N/A   Overcast
8:56 AM 25.0 °F 19.3 °F 23.0 °F 92% 30.14 in 10.0 mi South 4.6 mph - N/A   Partly Cloudy
9:56 AM 28.9 °F 23.9 °F 27.0 °F 92% 30.12 in 10.0 mi East 4.6 mph - N/A   Clear
10:56 AM 33.1 °F 28.7 °F 30.9 °F 92% 30.10 in 10.0 mi East 4.6 mph - N/A   Clear
11:56 AM 39.9 °F 35.8 °F 33.1 °F 77% 30.06 in 10.0 mi ESE 5.8 mph - N/A   Clear
12:56 PM 54.0 °F - 34.0 °F 47% 30.01 in 10.0 mi WSW 21.9 mph 27.6 mph N/A   Clear
1:56 PM 52.0 °F - 33.1 °F 49% 30.01 in 10.0 mi WSW 17.3 mph - N/A   Clear
2:56 PM 52.0 °F - 32.0 °F 47% 30.00 in 10.0 mi SW 17.3 mph - N/A   Clear
3:56 PM 51.1 °F - 34.0 °F 52% 30.00 in 10.0 mi West 25.3 mph 33.4 mph N/A   Mostly Cloudy
4:56 PM 50.0 °F - 34.0 °F 54% 30.03 in 10.0 mi WSW 21.9 mph 26.5 mph N/A   Clear
5:56 PM 48.0 °F - 34.0 °F 58% 30.03 in 10.0 mi SW 13.8 mph - N/A   Overcast
6:56 PM 48.0 °F - 35.1 °F 61% 30.02 in 10.0 mi WSW 25.3 mph 33.4 mph N/A   Clear
7:56 PM 45.0 °F 38.5 °F 35.1 °F 68% 30.06 in 10.0 mi WSW 13.8 mph - N/A   Clear
8:56 PM 44.1 °F 38.1 °F 35.1 °F 71% 30.04 in 10.0 mi SW 11.5 mph - N/A   Clear
9:56 PM 46.9 °F - 37.0 °F 68% 30.01 in 10.0 mi WSW 18.4 mph - N/A   Clear
10:56 PM 46.9 °F - 37.0 °F 68% 29.96 in 10.0 mi WSW 25.3 mph 33.4 mph N/A   Clear
11:56 PM 48.9 °F - 36.0 °F 61% 29.94 in 10.0 mi WSW 32.2 mph 41.4 mph N/A   Clear